User: anonymous   Login
Location: ??????
(36.0418°N, 43.6351°E)
Time: 13:57:13
(UTC+00:00)
Language:

SeaSat 1 - Orbit

View from above orbital plane
View from above orbital plane
View from above satellite
View from above satellite

Ground track
Ground track

The orbit data is extracted from the following two-line orbital elements,

1 10967U 78064A   21125.70357341 -.00000065  00000-0  21222-4 0  9994
2 10967 107.9975  24.3451 0002507 261.7083  98.3777 14.43875146251027
Epoch (UTC): 05 May 2021 16:53:08
Eccentricity: 0.0002507
inclination: 107.9975°
perigee height: 744 km
apogee height: 747 km
right ascension of ascending node: 24.3451°
argument of perigee: 261.7083°
revolutions per day: 14.43875146
mean anomaly at epoch: 98.3777°
orbit number at epoch: 25102

The dashed part of the orbit path shows where the satellite is in the earth's shadow,  

DLR